カタログに戻る

STARLINK-37368

運用中通信VLEO
NORAD 69253·PAYLOAD·🇺🇸 United States

打ち上げ May 29, 2026 から Cape Canaveral Space Force Station

Loading…

次のパス (今後24時間)

TLE

最新Source: CelesTrak SupGP

元期: Sep 15, 2026, 03:45 UTC

1 69253C 26117R   26258.15673611 -.00013241  00000+0 -39126-3 0  2589
2 69253  53.1587 178.4568 0001039  81.0748 154.8459 15.34393993    12

AllMySatでSTARLINK-37368をリアルタイム追跡

Download on the App Store